Keokuk, IA

11:21 AM CST on January 23, 2017 (GMT -0600)
Keokuk Municipal

Weather History for KEOK - April, 2013

Change the Weather History Date:

Thursday, April 25, 2013

  Actual Average Record
Temperature  
Mean Temperature 50 °F -  
Max Temperature 62 °F 69 °F 92 °F (1986)
Min Temperature 39 °F 45 °F 33 °F (1934)
Degree Days  
Heating Degree Days 14    
Moisture  
Dew Point 27 °F    
Average Humidity 42    
Maximum Humidity 70    
Minimum Humidity 20    
Precipitation  
Precipitation 0.00 in - - ()
Sea Level Pressure  
Sea Level Pressure 30.25 in    
Wind  
Wind Speed 9 mph (West)    
Max Wind Speed 18 mph    
Max Gust Speed 26 mph    
Visibility 10 miles    
Events      
Averages and records for this station are not official NWS values.
T = Trace of Precipitation, MM = Missing Value Source: NWS Daily Summary

Daily Weather History Graph

Daily Weather History Graph

Search for Another Location

Airport or City:

Trip Planner

Search our weather history database for the weather conditions in past years. The results will help you decide how hot, cold, wet, or windy it might be!

Date:

Astronomy

Apr. 25, 2013 Rise Set
Actual Time 6:12 AM CDT 7:55 PM CDT
Civil Twilight 5:43 AM CDT 8:24 PM CDT
Nautical Twilight 5:08 AM CDT 8:59 PM CDT
Astronomical Twilight 4:30 AM CDT 9:37 PM CDT
Moon 8:09 PM CDT (4/25) 5:55 AM CDT (4/25)
Length of Visible Light 14h 41m
Length of Day
13h 43m
Full, 100% of the Moon is Illuminated
Apr 25
Full
Apr 25
Full
May 2
Last Quarter
May 9
New
May 17
First Quarter

Hourly Weather History & Observations

Time (CDT) Temp. Windchill Dew Point Humidity Pressure Visibility Wind Dir Wind Speed Gust Speed Precip Events Conditions
12:15 AM 46.4 °F 40.4 °F 28.4 °F 50% 30.15 in 10.0 mi SSW 13.8 mph - N/A   Overcast
12:35 AM 46.4 °F 40.7 °F 28.4 °F 50% 30.15 in 10.0 mi SSW 12.7 mph - N/A   Scattered Clouds
12:55 AM 46.4 °F 41.1 °F 30.2 °F 53% 30.15 in 10.0 mi SSW 11.5 mph - N/A   Mostly Cloudy
1:15 AM 46.4 °F 41.5 °F 30.2 °F 53% 30.15 in 10.0 mi SW 10.4 mph - N/A   Overcast
1:55 AM 44.6 °F 40.7 °F 30.2 °F 57% 30.17 in 10.0 mi WSW 6.9 mph - N/A   Mostly Cloudy
2:15 AM 46.4 °F 41.5 °F 30.2 °F 53% 30.16 in 10.0 mi WSW 10.4 mph - N/A   Scattered Clouds
2:35 AM 44.6 °F 39.7 °F 30.2 °F 57% 30.16 in 10.0 mi WSW 9.2 mph - N/A   Clear
2:55 AM 44.6 °F 40.2 °F 30.2 °F 57% 30.16 in 10.0 mi WSW 8.1 mph - N/A   Clear
3:15 AM 44.6 °F 39.7 °F 30.2 °F 57% 30.16 in 10.0 mi WSW 9.2 mph - N/A   Clear
3:35 AM 44.6 °F 40.2 °F 30.2 °F 57% 30.18 in 10.0 mi WSW 8.1 mph - N/A   Scattered Clouds
3:55 AM 42.8 °F 37.5 °F 30.2 °F 61% 30.18 in 10.0 mi WSW 9.2 mph - N/A   Scattered Clouds
4:15 AM 41.0 °F 35.8 °F 30.2 °F 65% 30.18 in 10.0 mi West 8.1 mph - N/A   Clear
4:35 AM 39.2 °F 33.6 °F 30.2 °F 70% 30.20 in 10.0 mi West 8.1 mph - N/A   Clear
4:55 AM 41.0 °F 37.1 °F 30.2 °F 65% 30.20 in 10.0 mi WNW 5.8 mph - N/A   Clear
5:15 AM 42.8 °F 38.0 °F 32.0 °F 66% 30.20 in 10.0 mi WNW 8.1 mph - N/A   Clear
5:35 AM 39.2 °F 35.9 °F 30.2 °F 70% 30.20 in 10.0 mi WNW 4.6 mph - N/A   Clear
5:55 AM 41.0 °F 35.8 °F 30.2 °F 65% 30.21 in 10.0 mi WNW 8.1 mph - N/A   Clear
6:15 AM 41.0 °F 36.4 °F 30.2 °F 65% 30.21 in 10.0 mi WNW 6.9 mph - N/A   Clear
6:35 AM 39.2 °F 34.2 °F 30.2 °F 70% 30.22 in 10.0 mi WNW 6.9 mph - N/A   Clear
6:55 AM 42.8 °F 38.6 °F 30.2 °F 61% 30.23 in 10.0 mi WNW 6.9 mph - N/A   Clear
7:15 AM 42.8 °F 38.6 °F 32.0 °F 66% 30.24 in 10.0 mi WNW 6.9 mph - N/A   Clear
7:35 AM 44.6 °F 40.7 °F 33.8 °F 66% 30.26 in 10.0 mi WNW 6.9 mph - N/A   Clear
7:55 AM 44.6 °F 40.2 °F 33.8 °F 66% 30.26 in 10.0 mi WNW 8.1 mph - N/A   Clear
8:15 AM 46.4 °F 40.7 °F 32.0 °F 57% 30.27 in 10.0 mi WNW 12.7 mph - N/A   Clear
8:35 AM 46.4 °F 42.4 °F 30.2 °F 53% 30.28 in 10.0 mi WNW 8.1 mph - N/A   Clear
8:55 AM 48.2 °F - 28.4 °F 46% 30.28 in 10.0 mi WNW 10.4 mph - N/A   Clear
9:15 AM 48.2 °F - 28.4 °F 46% 30.28 in 10.0 mi WNW 12.7 mph - N/A   Clear
9:35 AM 50.0 °F - 28.4 °F 43% 30.29 in 10.0 mi WNW 11.5 mph - N/A   Clear
9:55 AM 51.8 °F - 28.4 °F 41% 30.29 in 10.0 mi NW 9.2 mph - N/A   Clear
10:15 AM 51.8 °F - 28.4 °F 41% 30.30 in 10.0 mi West 9.2 mph - N/A   Clear
10:35 AM 53.6 °F - 28.4 °F 38% 30.30 in 10.0 mi WNW 15.0 mph - N/A   Clear
10:55 AM 53.6 °F - 26.6 °F 35% 30.31 in 10.0 mi WNW 11.5 mph 20.7 mph N/A   Clear
11:15 AM 55.4 °F - 24.8 °F 31% 30.31 in 10.0 mi NW 16.1 mph 21.9 mph N/A   Clear
11:35 AM 55.4 °F - 26.6 °F 33% 30.31 in 10.0 mi West 13.8 mph 20.7 mph N/A   Clear
11:55 AM 55.4 °F - 24.8 °F 31% 30.32 in 10.0 mi West 10.4 mph 23.0 mph N/A   Scattered Clouds
12:15 PM 57.2 °F - 24.8 °F 29% 30.31 in 10.0 mi West 16.1 mph 20.7 mph N/A   Scattered Clouds
12:35 PM 57.2 °F - 24.8 °F 29% 30.31 in 10.0 mi NW 9.2 mph 20.7 mph N/A   Scattered Clouds
12:55 PM 57.2 °F - 23.0 °F 27% 30.31 in 10.0 mi West 18.4 mph 26.5 mph N/A   Scattered Clouds
1:15 PM 57.2 °F - 21.2 °F 25% 30.31 in 10.0 mi NW 16.1 mph 25.3 mph N/A   Clear
1:35 PM 59.0 °F - 24.8 °F 27% 30.31 in 10.0 mi WNW 12.7 mph 20.7 mph N/A   Clear
1:55 PM 57.2 °F - 24.8 °F 29% 30.30 in 10.0 mi West 11.5 mph 21.9 mph N/A   Scattered Clouds
2:15 PM 59.0 °F - 24.8 °F 27% 30.30 in 10.0 mi WNW 9.2 mph 17.3 mph N/A   Scattered Clouds
2:35 PM 60.8 °F - 24.8 °F 25% 30.29 in 10.0 mi NW 10.4 mph 21.9 mph N/A   Scattered Clouds
2:55 PM 60.8 °F - 21.2 °F 22% 30.28 in 10.0 mi West 9.2 mph - N/A   Clear
3:15 PM 60.8 °F - 21.2 °F 22% 30.28 in 10.0 mi NW 11.5 mph 18.4 mph N/A   Clear
3:35 PM 62.6 °F - 24.8 °F 24% 30.28 in 10.0 mi WNW 10.4 mph 17.3 mph N/A   Scattered Clouds
3:55 PM 60.8 °F - 21.2 °F 22% 30.28 in 10.0 mi West 5.8 mph - N/A   Scattered Clouds
4:15 PM 62.6 °F - 24.8 °F 24% 30.27 in 10.0 mi West 6.9 mph - N/A   Mostly Cloudy
4:35 PM 60.8 °F - 24.8 °F 25% 30.27 in 10.0 mi West 4.6 mph - N/A   Mostly Cloudy
4:55 PM 62.6 °F - 21.2 °F 20% 30.26 in 10.0 mi SW 3.5 mph - N/A   Scattered Clouds
5:15 PM 62.6 °F - 21.2 °F 20% 30.25 in 10.0 mi WNW 4.6 mph - N/A   Scattered Clouds
5:35 PM 60.8 °F - 19.4 °F 20% 30.25 in 10.0 mi Calm Calm - N/A   Clear
5:55 PM 60.8 °F - 19.4 °F 20% 30.26 in 10.0 mi Calm Calm - N/A   Clear
6:15 PM 60.8 °F - 21.2 °F 22% 30.25 in 10.0 mi Calm Calm - N/A   Clear
6:35 PM 60.8 °F - 19.4 °F 20% 30.25 in 10.0 mi Calm Calm - N/A   Clear
6:55 PM 60.8 °F - 24.8 °F 25% 30.25 in 10.0 mi Calm Calm - N/A   Clear
7:15 PM 60.8 °F - 21.2 °F 22% 30.24 in 10.0 mi South 3.5 mph - N/A   Clear
7:35 PM 59.0 °F - 21.2 °F 23% 30.24 in 10.0 mi SSE 3.5 mph - N/A   Clear
7:55 PM 57.2 °F - 24.8 °F 29% 30.24 in 10.0 mi ESE 3.5 mph - N/A   Clear
8:15 PM 55.4 °F - 26.6 °F 33% 30.24 in 10.0 mi SE 4.6 mph - N/A   Clear
8:35 PM 55.4 °F - 28.4 °F 36% 30.24 in 10.0 mi SE 3.5 mph - N/A   Clear
8:55 PM 53.6 °F - 30.2 °F 41% 30.24 in 10.0 mi SE 3.5 mph - N/A   Clear
9:15 PM 53.6 °F - 32.0 °F 44% 30.25 in 10.0 mi SE 4.6 mph - N/A   Clear
9:35 PM 53.6 °F - 30.2 °F 41% 30.25 in 10.0 mi SE 4.6 mph - N/A   Clear
9:55 PM 51.8 °F - 30.2 °F 44% 30.25 in 10.0 mi SE 4.6 mph - N/A   Clear
10:15 PM 51.8 °F - 30.2 °F 44% 30.26 in 10.0 mi SE 5.8 mph - N/A   Clear
10:35 PM 53.6 °F - 28.4 °F 38% 30.26 in 10.0 mi SSE 6.9 mph - N/A   Clear
10:55 PM 53.6 °F - 28.4 °F 38% 30.26 in 10.0 mi SSE 6.9 mph - N/A   Clear
11:15 PM 53.6 °F - 28.4 °F 38% 30.26 in 10.0 mi SSE 5.8 mph - N/A   Clear
11:35 PM 53.6 °F - 28.4 °F 38% 30.26 in 10.0 mi SSE 5.8 mph - N/A   Clear
11:55 PM 51.8 °F - 28.4 °F 41% 30.26 in 10.0 mi SE 6.9 mph - N/A   Clear